Mullan Pass, ID

3:23 AM PST on January 20, 2018 (GMT -0800)
Mullan Pass

Weather History for KMLP - April, 2014

Change the Weather History Date:

Tuesday, April 15, 2014

  Actual Average (K3TH) Record (K3TH)
Temperature  
Mean Temperature 32 °F -  
Max Temperature 37 °F 54 °F 63 °F (1999)
Min Temperature 26 °F 34 °F 27 °F (1999)
Degree Days  
Heating Degree Days 34    
Moisture  
Dew Point 27 °F    
Average Humidity 93    
Maximum Humidity 100    
Minimum Humidity 50    
Precipitation  
Precipitation 0.28 in - - ()
Sea Level Pressure  
Sea Level Pressure 29.86 in    
Wind  
Wind Speed 7 mph (West)    
Max Wind Speed 12 mph    
Max Gust Speed 29 mph    
Visibility 4 miles    
Events Fog , Snow    
Averages and records for this station are not official NWS values.
T = Trace of Precipitation, MM = Missing Value Source: NWS Daily Summary

Daily Weather History Graph

Daily Weather History Graph

Search for Another Location

Airport or City:

Trip Planner

Search our weather history database for the weather conditions in past years. The results will help you decide how hot, cold, wet, or windy it might be!

Date:

Astronomy

Apr. 15, 2014 Rise Set
Actual Time 5:54 AM PDT 7:32 PM PDT
Civil Twilight 5:21 AM PDT 8:04 PM PDT
Nautical Twilight 4:42 AM PDT 8:44 PM PDT
Astronomical Twilight 3:59 AM PDT 9:27 PM PDT
Moon 8:21 PM PDT (4/15) 6:03 AM PDT (4/15)
Length of Visible Light 14h 42m
Length of Day
13h 38m
Full, 100% of the Moon is Illuminated
Apr 15
Full
Apr 22
Last Quarter
Apr 28
New
May 6
First Quarter
May 14
Full

Hourly Weather History & Observations

Time (PDT) Temp. Windchill Dew Point Humidity Pressure Visibility Wind Dir Wind Speed Gust Speed Precip Events Conditions
12:53 AM 37.0 °F 30.4 °F 19.9 °F 50% 29.77 in 10.0 mi WNW 9.2 mph - N/A   Scattered Clouds
1:53 AM 36.0 °F 32.1 °F 21.0 °F 55% 29.75 in 10.0 mi Variable 4.6 mph - N/A   Clear
2:53 AM 35.1 °F 28.6 °F 21.9 °F 59% 29.72 in 10.0 mi SW 8.1 mph - N/A   Clear
3:53 AM 34.0 °F 28.0 °F 23.0 °F 64% 29.70 in 10.0 mi SW 6.9 mph - N/A   Mostly Cloudy
4:53 AM 33.1 °F 28.7 °F 24.1 °F 70% 29.69 in 10.0 mi Variable 4.6 mph - N/A   Overcast
5:53 AM 32.0 °F 27.5 °F 25.0 °F 75% 29.70 in 10.0 mi Variable 4.6 mph - N/A   Overcast
6:53 AM 30.9 °F 24.3 °F 24.1 °F 76% 29.71 in 10.0 mi Variable 6.9 mph 19.6 mph N/A   Overcast
7:04 AM 30.2 °F 23.4 °F 24.8 °F 80% 29.82 in 10.0 mi Variable 6.9 mph 20.7 mph N/A   Overcast
7:29 AM 30.2 °F 21.9 °F 24.8 °F 80% 29.82 in 8.0 mi West 9.2 mph 19.6 mph N/A   Overcast
7:50 AM 28.4 °F 22.2 °F 24.8 °F 86% 29.82 in 10.0 mi Variable 5.8 mph 20.7 mph 0.00 in   Overcast
7:53 AM 28.9 °F 19.8 °F 26.1 °F 89% 29.71 in 9.0 mi SW 10.4 mph 26.5 mph 0.00 in   Overcast
8:07 AM 28.4 °F 21.2 °F 26.6 °F 93% 29.82 in 1.8 mi Variable 6.9 mph 23.0 mph 0.00 in Snow Light Snow
8:17 AM 28.4 °F 19.7 °F 26.6 °F 93% 29.81 in 1.0 mi WSW 9.2 mph 19.6 mph 0.00 in Snow Light Snow
8:26 AM 28.4 °F 19.7 °F 26.6 °F 93% 29.81 in 2.0 mi SW 9.2 mph 20.7 mph 0.00 in Snow Light Snow
8:37 AM 28.4 °F 19.7 °F 26.6 °F 93% 29.81 in 1.5 mi SW 9.2 mph 20.7 mph 0.00 in Snow Light Snow
8:44 AM 28.4 °F 19.7 °F 26.6 °F 93% 29.81 in 1.0 mi WSW 9.2 mph 16.1 mph 0.00 in Snow Light Snow
8:53 AM 28.0 °F 21.7 °F 26.1 °F 92% 29.72 in 1.2 mi Variable 5.8 mph 18.4 mph 0.00 in Snow Light Snow
9:15 AM 28.4 °F 22.2 °F 26.6 °F 93% 29.82 in 2.0 mi Variable 5.8 mph - 0.00 in Snow Light Snow
9:31 AM 26.6 °F 19.1 °F 26.6 °F 100% 29.82 in 1.2 mi Variable 6.9 mph - 0.00 in Snow Light Snow
9:53 AM 28.0 °F - 27.0 °F 96% 29.73 in 0.2 mi Calm Calm - 0.00 in Fog , Snow Snow
10:00 AM 28.4 °F 24.6 °F 26.6 °F 93% 29.82 in 0.2 mi WNW 3.5 mph - 0.01 in Fog , Snow Snow
10:53 AM 28.0 °F 24.2 °F 28.0 °F 100% 29.73 in 0.2 mi Variable 3.5 mph - 0.06 in Fog , Snow Snow
11:15 AM 28.4 °F 21.2 °F 26.6 °F 93% 29.84 in 0.2 mi Variable 6.9 mph - 0.02 in Fog , Snow Snow
11:53 AM 28.0 °F 24.2 °F 28.0 °F 100% 29.75 in 0.2 mi Variable 3.5 mph - 0.06 in Fog , Snow Snow
12:11 PM 28.4 °F 24.6 °F 28.4 °F 100% 29.84 in 0.2 mi Variable 3.5 mph - 0.03 in Fog , Snow Snow
12:37 PM 28.4 °F 21.2 °F 26.6 °F 93% 29.85 in 0.2 mi Variable 6.9 mph 21.9 mph 0.05 in Fog , Snow Light Snow
12:53 PM 28.0 °F 20.8 °F 27.0 °F 96% 29.77 in 0.2 mi Variable 6.9 mph 20.7 mph 0.05 in Fog , Snow Light Snow
1:01 PM 28.4 °F 18.5 °F 28.4 °F 100% 29.86 in 1.0 mi NW 11.5 mph 25.3 mph 0.00 in   Overcast
1:05 PM 28.4 °F 20.4 °F 28.4 °F 100% 29.86 in 2.0 mi NW 8.1 mph 25.3 mph 0.00 in   Overcast
1:09 PM 28.4 °F 19.1 °F 28.4 °F 100% 29.86 in 5.0 mi NW 10.4 mph 25.3 mph 0.00 in   Overcast
1:25 PM 28.4 °F 19.1 °F 28.4 °F 100% 29.86 in 10.0 mi NW 10.4 mph 19.6 mph 0.00 in   Overcast
1:47 PM 30.2 °F 21.3 °F 28.4 °F 93% 29.86 in 2.5 mi WNW 10.4 mph 24.2 mph 0.00 in Snow Light Snow
1:50 PM 30.2 °F 20.8 °F 28.4 °F 93% 29.86 in 1.5 mi WNW 11.5 mph 24.2 mph 0.00 in Snow Light Snow
1:53 PM 30.0 °F 21.1 °F 28.0 °F 92% 29.77 in 1.2 mi NW 10.4 mph 26.5 mph 0.00 in Snow Light Snow
2:00 PM 30.2 °F 23.4 °F 28.4 °F 93% 29.86 in 1.0 mi Variable 6.9 mph 26.5 mph 0.00 in Snow Light Snow
2:07 PM 30.2 °F 21.9 °F 28.4 °F 93% 29.86 in 1.2 mi WNW 9.2 mph - 0.00 in Snow Light Snow
2:12 PM 30.2 °F 24.3 °F 28.4 °F 93% 29.86 in 2.0 mi Variable 5.8 mph 21.9 mph 0.00 in Snow Light Snow
2:20 PM 30.2 °F 22.6 °F 28.4 °F 93% 29.86 in 8.0 mi WNW 8.1 mph 18.4 mph 0.00 in   Overcast
2:39 PM 32.0 °F 26.4 °F 28.4 °F 87% 29.86 in 6.0 mi Variable 5.8 mph 28.8 mph 0.00 in   Overcast
2:53 PM 30.9 °F 25.2 °F 27.0 °F 85% 29.77 in 10.0 mi Variable 5.8 mph - 0.00 in   Overcast
3:39 PM 30.2 °F 21.9 °F 26.6 °F 86% 29.86 in 10.0 mi WSW 9.2 mph 18.4 mph N/A   Overcast
3:47 PM 30.2 °F 21.9 °F 26.6 °F 86% 29.86 in 2.0 mi West 9.2 mph 20.7 mph 0.00 in Snow Light Snow
3:50 PM 30.2 °F 22.6 °F 26.6 °F 86% 29.86 in 1.2 mi WSW 8.1 mph 19.6 mph 0.00 in Snow Light Snow
3:53 PM 30.0 °F 23.2 °F 27.0 °F 88% 29.78 in 0.8 mi Variable 6.9 mph 19.6 mph 0.00 in Snow Light Snow
4:00 PM 28.4 °F 21.2 °F 26.6 °F 93% 29.87 in 0.2 mi Variable 6.9 mph 23.0 mph 0.02 in Fog , Snow Snow
4:07 PM 28.4 °F 22.2 °F 28.4 °F 100% 29.87 in 0.2 mi Variable 5.8 mph - 0.03 in Fog , Snow Snow
4:29 PM 30.2 °F 23.4 °F 28.4 °F 93% 29.88 in 0.2 mi Variable 6.9 mph - 0.03 in Fog Light Freezing Fog
4:35 PM 30.2 °F 26.7 °F 28.4 °F 93% 29.87 in 1.0 mi Variable 3.5 mph - 0.03 in   Overcast
4:49 PM 30.2 °F 25.4 °F 28.4 °F 93% 29.87 in 4.0 mi Variable 4.6 mph - 0.03 in   Mostly Cloudy
4:53 PM 32.0 °F 25.6 °F 30.0 °F 92% 29.79 in 10.0 mi NW 6.9 mph - 0.03 in   Mostly Cloudy
4:59 PM 30.2 °F 22.6 °F 28.4 °F 93% 29.87 in 10.0 mi WNW 8.1 mph - N/A   Mostly Cloudy
5:12 PM 30.2 °F 25.4 °F 28.4 °F 93% 29.88 in 1.8 mi Variable 4.6 mph - 0.00 in Snow Light Snow
5:15 PM 30.2 °F 23.4 °F 28.4 °F 93% 29.88 in 0.8 mi NNW 6.9 mph - 0.00 in Snow Light Snow
5:18 PM 28.4 °F 19.1 °F 28.4 °F 100% 29.88 in 0.2 mi NNW 10.4 mph 20.7 mph 0.01 in Fog , Snow Snow
5:27 PM 28.4 °F 18.5 °F 28.4 °F 100% 29.88 in 0.2 mi NNW 11.5 mph 19.6 mph 0.02 in Fog , Snow Snow
5:37 PM 28.4 °F 23.3 °F 28.4 °F 100% 29.88 in 0.2 mi Variable 4.6 mph - 0.04 in Fog , Snow Heavy Snow
5:46 PM 28.4 °F 22.2 °F 28.4 °F 100% 29.88 in 0.2 mi Variable 5.8 mph - 0.05 in Fog , Snow Light Snow
5:51 PM 28.4 °F 22.2 °F 28.4 °F 100% 29.88 in 1.0 mi NW 5.8 mph - 0.05 in Snow Light Snow
5:53 PM 28.9 °F 22.8 °F 28.0 °F 96% 29.80 in 1.8 mi Variable 5.8 mph - 0.05 in Snow Light Snow
6:00 PM 28.4 °F 20.4 °F 26.6 °F 93% 29.88 in 3.0 mi NW 8.1 mph - 0.00 in   Mostly Cloudy
6:14 PM 28.4 °F 22.2 °F 26.6 °F 93% 29.87 in 10.0 mi WNW 5.8 mph - 0.00 in   Scattered Clouds
6:31 PM 28.4 °F 24.6 °F 26.6 °F 93% 29.88 in 2.0 mi Variable 3.5 mph - 0.00 in   Mostly Cloudy
6:36 PM 28.4 °F 22.2 °F 26.6 °F 93% 29.89 in 7.0 mi North 5.8 mph - 0.00 in   Mostly Cloudy
6:40 PM 28.4 °F 22.2 °F 26.6 °F 93% 29.89 in 1.2 mi North 5.8 mph - 0.00 in   Mostly Cloudy
6:45 PM 28.4 °F 21.2 °F 26.6 °F 93% 29.89 in 0.5 mi North 6.9 mph - 0.00 in Fog , Snow Light Snow
6:53 PM 28.0 °F 19.3 °F 27.0 °F 96% 29.82 in 1.5 mi North 9.2 mph - 0.00 in Snow Light Snow
6:55 PM 28.4 °F 20.4 °F 26.6 °F 93% 29.89 in 2.5 mi North 8.1 mph - 0.00 in Snow Light Snow
7:01 PM 28.4 °F 23.3 °F 26.6 °F 93% 29.89 in 1.2 mi NNW 4.6 mph - 0.00 in Snow Light Snow
7:06 PM 28.4 °F 23.3 °F 26.6 °F 93% 29.89 in 0.2 mi Variable 4.6 mph - 0.01 in Fog , Snow Snow
7:21 PM 28.4 °F - 28.4 °F 100% 29.89 in 1.0 mi Calm Calm - 0.02 in Snow Light Snow
7:32 PM 28.4 °F - 26.6 °F 93% 29.89 in 0.5 mi Calm Calm - 0.03 in Fog , Snow Snow
7:43 PM 28.4 °F - 26.6 °F 93% 29.89 in 1.5 mi Calm Calm - 0.03 in   Overcast
7:48 PM 28.4 °F - 26.6 °F 93% 29.89 in 3.0 mi Calm Calm - 0.03 in   Overcast
7:53 PM 28.0 °F 24.2 °F 27.0 °F 96% 29.97 in 10.0 mi SSW 3.5 mph - 0.03 in   Mostly Cloudy
8:01 PM 26.6 °F 20.0 °F 26.6 °F 100% 29.90 in 4.0 mi South 5.8 mph - N/A   Mostly Cloudy
8:03 PM 26.6 °F 21.2 °F 26.6 °F 100% 29.90 in 1.5 mi South 4.6 mph - N/A   Mostly Cloudy
8:05 PM 26.6 °F 20.0 °F 26.6 °F 100% 29.90 in 0.8 mi South 5.8 mph - N/A   Mostly Cloudy
8:11 PM 26.6 °F 19.1 °F 26.6 °F 100% 29.90 in 0.2 mi South 6.9 mph - N/A Fog Light Freezing Fog
8:22 PM 28.4 °F 24.6 °F 26.6 °F 93% 29.90 in 0.5 mi Variable 3.5 mph - 0.00 in Fog , Snow Light Snow
8:29 PM 28.4 °F 22.2 °F 26.6 °F 93% 29.90 in 0.8 mi Variable 5.8 mph - 0.00 in Snow Light Snow
8:31 PM 28.4 °F 24.6 °F 26.6 °F 93% 29.90 in 1.5 mi Variable 3.5 mph - 0.00 in Snow Light Snow
8:33 PM 26.6 °F 20.0 °F 26.6 °F 100% 29.90 in 4.0 mi Variable 5.8 mph - 0.00 in Snow Light Snow
8:41 PM 26.6 °F 21.2 °F 26.6 °F 100% 29.91 in 10.0 mi Variable 4.6 mph - 0.00 in   Mostly Cloudy
8:48 PM 26.6 °F 22.6 °F 26.6 °F 100% 29.91 in 10.0 mi SW 3.5 mph - 0.00 in   Mostly Cloudy
8:53 PM 27.0 °F 23.0 °F 26.1 °F 96% 30.00 in 10.0 mi SW 3.5 mph - 0.00 in   Mostly Cloudy
9:34 PM 26.6 °F 19.1 °F 26.6 °F 100% 29.90 in 1.5 mi South 6.9 mph - N/A   Overcast
9:36 PM 26.6 °F 19.1 °F 26.6 °F 100% 29.90 in 1.0 mi South 6.9 mph - N/A   Overcast
9:48 PM 26.6 °F 17.5 °F 26.6 °F 100% 29.90 in 2.0 mi South 9.2 mph - N/A   Overcast
9:53 PM 27.0 °F 18.7 °F 26.1 °F 96% 29.99 in 10.0 mi SSE 8.1 mph - N/A   Overcast
10:31 PM 26.6 °F 16.8 °F 26.6 °F 100% 29.91 in 1.5 mi South 10.4 mph 16.1 mph N/A   Overcast
10:36 PM 26.6 °F 17.5 °F 26.6 °F 100% 29.91 in 0.8 mi South 9.2 mph 16.1 mph N/A   Overcast
10:51 PM 26.6 °F 19.1 °F 26.6 °F 100% 29.91 in 0.8 mi South 6.9 mph - N/A   Overcast
10:53 PM 27.0 °F 18.7 °F 26.1 °F 96% 30.00 in 1.0 mi South 8.1 mph - N/A   Overcast
10:59 PM 26.6 °F 19.1 °F 26.6 °F 100% 29.91 in 2.0 mi South 6.9 mph - N/A   Overcast
11:10 PM 26.6 °F 19.1 °F 26.6 °F 100% 29.91 in 1.2 mi South 6.9 mph - N/A   Overcast
11:21 PM 26.6 °F 21.2 °F 26.6 °F 100% 29.92 in 2.0 mi Variable 4.6 mph - N/A   Mostly Cloudy
11:30 PM 26.6 °F 21.2 °F 26.6 °F 100% 29.92 in 8.0 mi Variable 4.6 mph - N/A   Mostly Cloudy
11:43 PM 26.6 °F 22.6 °F 26.6 °F 100% 29.92 in 10.0 mi Variable 3.5 mph - N/A   Scattered Clouds
11:53 PM 27.0 °F 21.6 °F 25.0 °F 92% 30.01 in 10.0 mi SSW 4.6 mph - N/A   Partly Cloudy